Flag for Germany Weather past 2 weeks in Heidenheim an der Brenz, Baden-Württemberg, Germany

Now
64 °F

Partly sunny.


Feels Like: 64 °F
Forecast: 53 / 66 °F
Wind: 2 mph from Southeast

Location: Stoetten

Current Time: Aug 28, 2014 at 3:26:35 PM

Latest Report: Aug 28, 2014 at 3:00 PM


Visibility: 47 mi

Pressure: 30.03 "Hg

Humidity: 73%

Dew point: 55 °F

Location of Heidenheim an der BrenzLocation

Historic Weather in Heidenheim an der Brenz — Graph

°F

Heidenheim an der Brenz temperature yesterday

Maximum temperature yesterday: 62 °F (at 6:00 PM)
Minimum temperature yesterday: 52 °F (at 10:00 AM)
Average temperature yesterday: 56 °F

Past Weeks' High & Low Weather Summary

 TemperatureHumidityPressure
High65 °F (Aug 17, 5:00 PM)100% (Aug 16, 9:00 AM)30.19 "Hg (Aug 16, 9:00 AM)
Low44 °F (Aug 24, 3:00 AM)46% (Aug 21, 2:00 PM)29.66 "Hg (Aug 13, 3:00 PM)
Average54 °F81%29.98 "Hg
* Reported Aug 13 2:00 PM — Aug 28 2:00 PM, Heidenheim an der Brenz, Weather by CustomWeather, © 2014

Note: Actual official high and low records may vary slightly from our data, if they occured in-between our weather recording intervals... More about our weather records

Advertising

Heidenheim an der Brenz weather history for previous 24 hours

 ConditionsComfort  
Time TempWeatherWind HumidityBarometerVisibility
2:00 PM
Aug 28
64 °FPartly sunny.2 mph71%30.03 "Hg47 mi
1:00 PM65 °FScattered clouds.2 mph67%30.03 "Hg43 mi
12:00 PM63 °FScattered clouds.2 mph74%30.05 "Hg43 mi
11:00 AM61 °FScattered clouds.2 mph82%30.06 "Hg37 mi
10:00 AM57 °FOvercast.2 mph89%30.08 "Hg25 mi
9:00 AM54 °FFog.3 mph96%30.09 "Hg22 mi
8:00 AM52 °FFog.2 mph97%30.09 "Hg16 mi
7:00 AM51 °FFog.3 mph99%30.09 "Hg0 mi
6:00 AM53 °FPassing clouds.3 mph97%30.07 "Hg19 mi
5:00 AM53 °FFog.2 mph98%30.07 "Hg4 mi
4:00 AM54 °FFog.2 mph99%30.07 "Hg3 mi
3:00 AM54 °FFog.2 mph96%30.07 "Hg4 mi
2:00 AM54 °FFog.2 mph99%30.08 "Hg3 mi
1:00 AM55 °FPassing clouds.2 mph95%30.07 "Hg5 mi
12:00 AM55 °FPassing clouds.2 mph98%30.07 "Hg3 mi
11:00 PM
Aug 27
54 °FFog.2 mph97%30.07 "Hg2 mi
10:00 PM55 °FClear.2 mph95%30.06 "Hg6 mi
9:00 PM55 °FPassing clouds.2 mph88%30.06 "Hg47 mi
8:00 PM59 °FScattered clouds.1 mph76%30.03 "Hg47 mi
7:00 PM62 °FScattered clouds.N/A67%30.01 "Hg47 mi
6:00 PM62 °FScattered clouds.2 mph66%30.01 "Hg47 mi
5:00 PM61 °FScattered clouds.3 mph71%30.01 "Hg47 mi
4:00 PM61 °FScattered clouds.N/A71%30.00 "Hg47 mi
3:00 PM60 °FPartly sunny.3 mph77%30.00 "Hg47 mi
Weather by CustomWeather, © 2014

See weather overviewHow to use our weather pages